Regional Weather Roundup
Issued by NWS

Home | Current Version | Previous Version | Graphics & Text | Print | Product List | Glossary On
Versions: 1 2 3 4 5 6 7 8 9 10 11 12 13 14 15 16 17 18 19 20 21 22 23 24 25 26 27 28 29 30 31 32 33 34 35 36 37 38 39 40 41 42 43 44 45 46 47 48 49 50
861
ASUS43 KMPX 212201
RWRMN
WEATHER ROUNDUP FOR MINNESOTA
NATIONAL WEATHER SERVICE TWIN CITIES/CHANHASSEN MN
500 PM CDT MON AUG 21 2017


NOTE: "FAIR" INDICATES FEW OR NO CLOUDS BELOW 12,000 FEET WITH NO
SIGNIFICANT WEATHER AND/OR OBSTRUCTIONS TO VISIBILITY. N/A MEANS
CURRENT SKY AND/OR WEATHER CONDITIONS ARE NOT AVAILABLE.

MNZ060>063-068>070-212300-
   Twin Cities Metro

CITY           SKY/WX    TMP DP  RH WIND       PRES   REMARKS
TWIN CITIES    CLOUDY    70  65  84 SW8       29.91S
ST PAUL        LGT RAIN  71  67  87 S8        29.91R
CRYSTAL        CLOUDY    71  65  81 S9        29.89S
BLAINE         CLOUDY    73  68  83 SW6       29.91R
LAKEVILLE      LGT RAIN  64  64 100 S10G21    29.93F
EDEN PRAIRIE   LGT RAIN  70  67  90 S12       29.90S
SOUTH ST PAUL  LGT RAIN  67  67 100 S13G21    29.90S
LAKE ELMO      PTSUNNY   72  68  88 SW10G25   29.92R
$$
MNZ001>005-007-008-013>017-022>024-027-028-212300-
   Northwest Minnesota

CITY           SKY/WX    TMP DP  RH WIND       PRES   REMARKS
BEMIDJI        PTSUNNY   68  54  60 NE5       29.89F
HALLOCK        MOSUNNY   70  54  56 N6        29.88F
ROSEAU           N/A     66  57  72 CALM      29.90R
WARROAD        MOSUNNY   66  55  68 CALM      29.90S
CROOKSTON      CLOUDY    72  55  56 N7        29.88R
FOSSTON        CLOUDY    70  61  73 CALM      29.88F
DETROIT LAKES  CLOUDY    70  61  73 CALM      29.88F
MOORHEAD       CLOUDY    73  61  64 W7        29.87S
PARK RAPIDS    CLOUDY    73  58  59 CALM      29.88F
MAHNOMEN       CLOUDY    70  60  69 N3        29.87S
$$
MNZ006-009>011-018-025>026-212300-
   North Central Minnesota

CITY           SKY/WX    TMP DP  RH WIND       PRES   REMARKS
BAUDETTE       CLOUDY    66  56  70 E7        29.88F
FLAG ISLAND    CLOUDY    64  52  63 CALM      29.89R
INTL FALLS     LGT RAIN  63  59  87 VRB3      29.92S
WASKISH        CLOUDY    63  59  88 CALM      29.90F
BIG FORK       CLOUDY    64  57  77 CALM      29.92F
LONGVILLE      CLOUDY    66  63  88 CALM      29.90S
GRAND RAPIDS   CLOUDY    66  61  84 CALM      29.93R
CRANE LAKE     LGT RAIN  61  57  88 CALM      29.95S
ORR            CLOUDY    63  57  82 CALM      29.91F
COOK           CLOUDY    63  57  82 CALM      29.93F
WALKER         CLOUDY    66  57  73 CALM      29.90F
$$
MNZ012-019>021-037-212300-
   Northeast Minnesota

CITY           SKY/WX    TMP DP  RH WIND       PRES   REMARKS
DULUTH         CLOUDY    66  57  72 E7        29.90F
ELY            DRIZZLE   61  59  94 CALM      29.94S
HIBBING        CLOUDY    65  57  75 N3        29.91S
EVELETH        CLOUDY    65  53  64 CALM      29.92S
DULUTH HARBOR  CLOUDY    68  63  83 NE6       29.88F
TWO HARBORS    CLOUDY    66  61  82 E6        29.88F
SILVER BAY     CLOUDY    64  57  77 CALM      29.90S
GRAND MARAIS     N/A     65  57  75 CALM      29.91F
$$
MNZ029>031-032-039>041-046>048-054>057-064-212300-
   West Central Minnesota

CITY           SKY/WX    TMP DP  RH WIND       PRES   REMARKS
FERGUS FALLS   CLOUDY    72  63  73 NW8       29.86F
WHEATON        PTSUNNY   73  59  60 W12       29.89R
MORRIS         CLOUDY    73  64  73 W8        29.88R
ALEXANDRIA     CLOUDY    69  63  81 SW9       29.90F
ELBOW LAKE     CLOUDY    69  64  84 NW5       29.88F HAZE
WADENA         CLOUDY    68  63  83 S6          N/A
GLENWOOD       CLOUDY    70  64  83 S8        29.90S
APPLETON       CLOUDY    70  63  78 W5        29.88S
BENSON         CLOUDY    70  63  78 CALM      29.91R
ORTONVILLE     CLOUDY    73  61  64 MISG      29.89R
MADISON        CLOUDY    73  70  88 W8        29.89S
WILLMAR        FAIR      68  66  94 CALM      29.92R
$$
MNZ033>034-036-042>043-049>051-058-059-212300-
   Central Minnesota

CITY           SKY/WX    TMP DP  RH WIND       PRES   REMARKS
ST CLOUD       CLOUDY    69  66  90 W3        29.89F
SAUK CENTRE    FAIR      67  64  87 S5        29.89F
PAYNESVILLE    CLOUDY    67  65  93 CALM      29.91R
AITKIN         LGT RAIN  70  63  78 S6        29.88F
PINE RIVER     CLOUDY    68  57  68 S3        29.92F
BRAINERD       CLOUDY    70  62  76 S8        29.88F
STAPLES        CLOUDY    70  63  78 S7        29.89F
LONG PRAIRIE   FAIR      68  63  83 SE7       29.89F
LITTLE FALLS   CLOUDY    70  61  73 S5        29.90F
LITCHFIELD     CLOUDY    70  68  94 CALM      29.89F
BUFFALO        CLOUDY    70  65  84 S7        29.92R
MAPLE LAKE     CLOUDY    71  68  92 CALM      29.91S
HUTCHINSON     SUNNY     69  67  93 SE9       29.90F
$$
MNZ037-044-045-052-053-212300-
   East Central Minnesota

CITY           SKY/WX    TMP DP  RH WIND       PRES   REMARKS
PRINCETON      CLOUDY    72  66  83 CALM      29.90F
MORA           CLOUDY    70  63  78 S3        29.91F
CAMBRIDGE      CLOUDY    73  66  78 CALM      29.90S
RUSH CITY      CLOUDY    71  66  82 S3        29.90S
MOOSE LAKE     CLOUDY    70  61  73 CALM      29.87F
HINCKLEY       CLOUDY    72  68  88 CALM      29.89F
CLOQUET        CLOUDY    68  57  68 CALM      29.90F
MCGREGOR       CLOUDY    72  59  64 S10       29.89F
$$
MNZ071>073-080-081-089-090-097-098-212300-
   Southwest Minnesota

CITY           SKY/WX    TMP DP  RH WIND       PRES   REMARKS
MONTEVIDEO     CLOUDY    68  68 100 E3        29.90S
GRANITE FALLS  CLOUDY    69  67  93 NW3       29.92R
CANBY          CLOUDY    71  66  84 CALM      29.92R
MARSHALL       CLOUDY    69  65  86 W5        29.91R
REDWOOD FALLS  CLOUDY    68  64  87 S16G30    29.87F
OLIVIA         CLOUDY    68  64  88 W6        29.91R
PIPESTONE      CLOUDY    70  64  83 W3        29.95R
WINDOM         LGT RAIN  64  63  94 SE24G32   29.83F
WORTHINGTON    CLOUDY    64  63  96 SE16G24   29.88R
JACKSON        RAIN      63  63 100 SE23G33   29.87F
TRACY          CLOUDY    69  66  89 SW9       29.92R
SLAYTON        CLOUDY    65  61  87 SE14      29.87F
$$
MNZ065>067-074>077-082>085-091>093-212300-
   South Central Minnesota

CITY           SKY/WX    TMP DP  RH WIND       PRES   REMARKS
MANKATO        RAIN      68  67  96 S12       29.97F
NEW ULM        LGT RAIN  66  64  94 S18G28    29.90F
ST JAMES       RAIN      66  64  94 S16       29.97F
FAIRMONT       RAIN      65  63  93 S7        30.02F
GLENCOE        CLOUDY    68  68  99 S10G18    29.91F
FARIBAULT      RAIN      68  66  94 S8        29.99R
OWATONNA       HVY RAIN  68  66  94 SW7       30.01R
WASECA         RAIN      68  64  88 S7        30.03R
ALBERT LEA     RAIN      68  68 100 S8        30.01F
$$
MNZ078>079-086>088-094>096-212300-
   Southeast Minnesota

CITY           SKY/WX    TMP DP  RH WIND       PRES   REMARKS
ROCHESTER      RAIN      66  65  96 SW13      30.01F FOG
RED WING       LGT RAIN  70  63  78 S12G28    29.87F
STANTON        LGT RAIN  68  65  90 S8        29.96R
DODGE CENTER   LGT RAIN  66  64  94 S10G17    29.98F
WINONA         DRIZZLE   70  66  88 CALM      29.99R
AUSTIN         HVY RAIN  66  63  88 SW5       30.03S
PRESTON        RAIN      67  64  90 W7        30.02F
$$
ABBREVIATIONS USED IN REMARKS
   TC - TEMPERATURES IN CELSIUS
  WCI - WIND CHILL INDEX
   HX - HEAT INDEX
  VSB - VISIBILITY
$$




USA.gov is the U.S. government's official web portal to all federal, state and local government web resources and services.